TimeMDT,TemperatureF,Dew PointF,Humidity,Sea Level PressureIn,VisibilityMPH,Wind Direction,Wind SpeedMPH,Gust SpeedMPH,PrecipitationIn,Events,Conditions,WindDirDegrees,DateUTC
12:53 AM,48.0,14.0,26,29.61,10.0,SSW,25.3,40.3,N/A,,Overcast,200,2014-04-01 06:53:00
1:19 AM,48.0,15.1,27,29.71,10.0,SSW,33.4,52.9,N/A,,Squalls,200,2014-04-01 07:19:00
1:53 AM,48.9,12.9,24,29.58,10.0,SSW,23.0,44.9,N/A,,Overcast,200,2014-04-01 07:53:00
2:53 AM,48.0,14.0,26,29.59,10.0,SSW,23.0,39.1,N/A,,Overcast,200,2014-04-01 08:53:00
3:53 AM,46.0,16.0,30,29.56,10.0,SSW,23.0,33.4,N/A,,Overcast,200,2014-04-01 09:53:00
4:53 AM,44.1,10.0,25,29.57,10.0,South,25.3,40.3,N/A,,Mostly Cloudy,190,2014-04-01 10:53:00
5:53 AM,43.0,7.0,23,29.56,10.0,South,23.0,39.1,N/A,,Overcast,180,2014-04-01 11:53:00
6:53 AM,42.1,12.9,31,29.60,10.0,South,28.8,41.4,N/A,,Overcast,190,2014-04-01 12:53:00
7:53 AM,36.0,25.0,64,29.66,8.0,South,18.4,29.9,0.00,Snow,Light Snow,170,2014-04-01 13:53:00
8:53 AM,36.0,27.0,70,29.68,10.0,SW,8.1,-,0.00,,Overcast,230,2014-04-01 14:53:00
9:53 AM,41.0,28.0,60,29.68,10.0,South,19.6,26.5,N/A,,Overcast,190,2014-04-01 15:53:00
10:53 AM,39.0,28.0,65,29.71,6.0,SSW,17.3,35.7,0.00,Rain,Light Rain,210,2014-04-01 16:53:00
11:05 AM,41.0,26.1,55,29.78,10.0,SW,18.4,31.1,0.00,,Mostly Cloudy,230,2014-04-01 17:05:00
11:53 AM,46.0,25.0,44,29.68,10.0,SSW,18.4,32.2,0.00,,Mostly Cloudy,210,2014-04-01 17:53:00
12:53 PM,45.0,19.9,37,29.69,10.0,SSW,24.2,36.8,0.00,,Overcast,210,2014-04-01 18:53:00
1:53 PM,45.0,16.0,31,29.68,10.0,SSW,17.3,29.9,0.00,,Overcast,210,2014-04-01 19:53:00
2:31 PM,45.0,23.0,42,29.76,10.0,West,15.0,27.6,N/A,,Overcast,270,2014-04-01 20:31:00
2:53 PM,46.0,14.0,28,29.67,10.0,SW,18.4,26.5,N/A,,Overcast,220,2014-04-01 20:53:00
3:53 PM,46.0,14.0,28,29.66,10.0,SSW,21.9,31.1,N/A,,Overcast,210,2014-04-01 21:53:00
4:53 PM,46.0,12.9,26,29.66,10.0,SW,17.3,27.6,N/A,,Overcast,220,2014-04-01 22:53:00
5:53 PM,45.0,10.9,25,29.66,10.0,SSW,18.4,26.5,N/A,,Mostly Cloudy,200,2014-04-01 23:53:00
6:53 PM,43.0,12.0,28,29.67,10.0,SSW,17.3,27.6,N/A,,Partly Cloudy,210,2014-04-02 00:53:00
7:53 PM,42.1,8.1,25,29.69,10.0,SSW,11.5,-,N/A,,Scattered Clouds,200,2014-04-02 01:53:00
8:53 PM,43.0,9.0,25,29.69,10.0,SW,16.1,23.0,N/A,,Overcast,230,2014-04-02 02:53:00
9:53 PM,41.0,12.9,32,29.69,10.0,SSW,11.5,-,N/A,,Overcast,210,2014-04-02 03:53:00
10:53 PM,36.0,12.0,37,29.70,10.0,SW,6.9,-,N/A,,Scattered Clouds,220,2014-04-02 04:53:00
11:53 PM,39.0,12.9,34,29.68,10.0,South,13.8,-,N/A,,Overcast,190,2014-04-02 05:53:00